| time (UTC) | temp F | wind direction | speed knots | gust knots | rain 1hr in | rain 24hr in | rain mn in | humidity % | barometer mb |
| 20260508173804 | 76 | 328 | 1.7 | 5.2 | 0.00 | 0.00 | 0.00 | 65 | 1012.3 |
| 20260508173305 | 75 | 196 | 0.9 | 4.3 | 0.00 | 0.00 | 0.00 | 65 | 1012.5 |
| 20260508171804 | 74 | 306 | 2.6 | 4.3 | 0.00 | 0.00 | 0.00 | 67 | 1012.8 |
| 20260508171304 | 73 | 148 | 0.9 | 2.6 | 0.00 | 0.00 | 0.00 | 68 | 1012.9 |
| 20260508170304 | 72 | 31 | 0.9 | 7.0 | 0.00 | 0.00 | 0.00 | 69 | 1013.0 |
| 20260508164304 | 69 | 314 | 2.6 | 4.3 | 0.00 | 0.00 | 0.00 | 71 | 1013.3 |
| 20260508163804 | 69 | 335 | 1.7 | 4.3 | 0.00 | 0.00 | 0.00 | 71 | 1013.4 |
| 20260508163304 | 68 | 150 | 0.9 | 1.7 | 0.00 | 0.00 | 0.00 | 72 | 1013.6 |
| 20260508161804 | 68 | 150 | 0.0 | 2.6 | 0.00 | 0.01 | 0.00 | 72 | 1013.9 |
| 20260508161304 | 68 | 150 | 0.9 | 1.7 | 0.00 | 0.01 | 0.00 | 72 | 1013.9 |
| 20260508160804 | 68 | 150 | 0.0 | 1.7 | 0.00 | 0.01 | 0.00 | 72 | 1013.8 |
| 20260508160304 | 67 | 150 | 0.9 | 1.7 | 0.00 | 0.01 | 0.00 | 72 | 1013.8 |
| 20260508154804 | 66 | 150 | 0.0 | 0.9 | 0.00 | 0.01 | 0.00 | 74 | 1014.1 |
| 20260508154304 | 65 | 150 | 1.7 | 1.7 | 0.00 | 0.01 | 0.00 | 74 | 1014.2 |
| 20260508153804 | 65 | 150 | 1.7 | 2.6 | 0.00 | 0.01 | 0.00 | 74 | 1014.2 |
| 20260508153304 | 65 | 150 | 1.7 | 5.2 | 0.00 | 0.01 | 0.00 | 74 | 1014.2 |
| 20260508151804 | 65 | 156 | 3.5 | 7.8 | 0.00 | 0.01 | 0.00 | 75 | 1014.4 |
| 20260508151304 | 65 | 163 | 5.2 | 10.4 | 0.00 | 0.01 | 0.00 | 74 | 1014.3 |
| 20260508150804 | 65 | 160 | 2.6 | 7.8 | 0.00 | 0.01 | 0.00 | 75 | 1014.2 |
| 20260508150303 | 65 | 156 | 1.7 | 7.0 | 0.00 | 0.01 | 0.00 | 74 | 1014.1 |
| 20260508144304 | 65 | 154 | 1.7 | 4.3 | 0.00 | 0.01 | 0.00 | 74 | 1014.4 |
| 20260508143804 | 65 | 153 | 4.3 | 5.2 | 0.00 | 0.01 | 0.00 | 74 | 1014.3 |
| 20260508143304 | 65 | 157 | 1.7 | 7.0 | 0.00 | 0.01 | 0.00 | 75 | 1014.3 |
| 20260508141804 | 64 | 121 | 2.6 | 4.3 | 0.00 | 0.01 | 0.00 | 75 | 1014.1 |
| 20260508141304 | 64 | 119 | 0.9 | 4.3 | 0.00 | 0.01 | 0.00 | 76 | 1014.1 |
| 20260508140804 | 63 | 130 | 2.6 | 2.6 | 0.00 | 0.01 | 0.00 | 76 | 1014.1 |
| 20260508140305 | 63 | 92 | 2.6 | 5.2 | 0.00 | 0.01 | 0.00 | 76 | 1014.0 |
| 20260508134804 | 62 | 157 | 0.9 | 2.6 | 0.00 | 0.01 | 0.00 | 77 | 1014.3 |
| 20260508134304 | 62 | 157 | 1.7 | 7.0 | 0.00 | 0.01 | 0.00 | 77 | 1014.4 |
| 20260508133805 | 62 | 163 | 4.3 | 7.8 | 0.00 | 0.01 | 0.00 | 78 | 1014.3 |
| 20260508133304 | 62 | 336 | 0.0 | 2.6 | 0.00 | 0.01 | 0.00 | 78 | 1014.1 |
| 20260508131804 | 61 | 336 | 0.0 | 1.7 | 0.00 | 0.01 | 0.00 | 79 | 1014.3 |
| 20260508131304 | 61 | 336 | 0.0 | 0.0 | 0.00 | 0.01 | 0.00 | 79 | 1014.4 |
| 20260508130804 | 61 | 336 | 0.0 | 0.0 | 0.00 | 0.01 | 0.00 | 79 | 1014.8 |
| 20260508124804 | 60 | 336 | 0.0 | 0.0 | 0.00 | 0.01 | 0.00 | 79 | 1014.6 |
| 20260508124304 | 60 | 336 | 0.0 | 1.7 | 0.00 | 0.01 | 0.00 | 79 | 1014.8 |
| 20260508123804 | 60 | 336 | 0.0 | 0.9 | 0.00 | 0.01 | 0.00 | 79 | 1014.7 |
| 20260508123304 | 60 | 336 | 1.7 | 5.2 | 0.00 | 0.01 | 0.00 | 79 | 1014.7 |
| 20260508121804 | 60 | 32 | 2.6 | 4.3 | 0.00 | 0.01 | 0.00 | 79 | 1014.9 |
| 20260508121304 | 60 | 28 | 4.3 | 5.2 | 0.00 | 0.01 | 0.00 | 79 | 1014.8 |
| 20260508120804 | 60 | 29 | 4.3 | 5.2 | 0.00 | 0.01 | 0.00 | 79 | 1014.8 |
| 20260508120304 | 60 | 35 | 3.5 | 8.7 | 0.00 | 0.01 | 0.00 | 79 | 1014.8 |
| 20260508114804 | 60 | 65 | 1.7 | 4.3 | 0.00 | 0.01 | 0.00 | 79 | 1015.0 |
| 20260508114304 | 59 | 49 | 2.6 | 7.8 | 0.00 | 0.01 | 0.00 | 80 | 1015.0 |
| 20260508113804 | 59 | 62 | 0.9 | 2.6 | 0.00 | 0.01 | 0.00 | 80 | 1015.0 |
| 20260508113304 | 59 | 20 | 1.7 | 2.6 | 0.00 | 0.01 | 0.00 | 80 | 1015.1 |
| 20260508111805 | 59 | 19 | 0.9 | 1.7 | 0.00 | 0.01 | 0.00 | 80 | 1015.2 |
| 20260508111304 | 59 | 19 | 0.0 | 4.3 | 0.00 | 0.01 | 0.00 | 80 | 1015.4 |
| 20260508110804 | 59 | 30 | 1.7 | 4.3 | 0.00 | 0.01 | 0.00 | 80 | 1015.3 |
| 20260508103804 | 59 | 11 | 3.5 | 8.7 | 0.00 | 0.01 | 0.00 | 80 | 1014.5 |
| 20260508101804 | 59 | 2 | 1.7 | 4.3 | 0.00 | 0.01 | 0.00 | 81 | 1014.9 |
| 20260508101304 | 59 | 342 | 0.9 | 1.7 | 0.00 | 0.01 | 0.00 | 80 | 1015.3 |
| 20260508100804 | 59 | 342 | 0.9 | 2.6 | 0.00 | 0.01 | 0.00 | 80 | 1015.4 |
| 20260508100304 | 59 | 342 | 0.0 | 4.3 | 0.00 | 0.01 | 0.00 | 80 | 1015.6 |
| 20260508094804 | 59 | 126 | 1.7 | 2.6 | 0.00 | 0.01 | 0.00 | 80 | 1015.5 |
| 20260508093804 | 59 | 126 | 0.0 | 0.0 | 0.00 | 0.01 | 0.00 | 80 | 1015.5 |
| 20260508093304 | 59 | 126 | 0.0 | 1.7 | 0.00 | 0.01 | 0.00 | 80 | 1015.5 |
| 20260508091804 | 60 | 126 | 0.9 | 1.7 | 0.00 | 0.01 | 0.00 | 80 | 1015.3 |
| 20260508091305 | 60 | 126 | 0.0 | 0.9 | 0.00 | 0.01 | 0.00 | 79 | 1015.2 |
| 20260508090803 | 60 | 126 | 0.0 | 0.0 | 0.00 | 0.01 | 0.00 | 79 | 1015.0 |
| 20260508090304 | 60 | 126 | 0.0 | 0.0 | 0.00 | 0.01 | 0.00 | 79 | 1015.1 |
| 20260508084804 | 60 | 126 | 0.0 | 0.9 | 0.00 | 0.01 | 0.00 | 78 | 1015.2 |
| 20260508083804 | 60 | 126 | 0.0 | 0.9 | 0.00 | 0.01 | 0.00 | 77 | 1015.0 |
| 20260508083304 | 60 | 126 | 0.0 | 0.0 | 0.00 | 0.01 | 0.00 | 77 | 1015.1 |
| 20260508081805 | 60 | 126 | 0.0 | 0.0 | 0.00 | 0.01 | 0.00 | 77 | 1015.2 |
| 20260508081304 | 60 | 126 | 0.0 | 0.0 | 0.00 | 0.01 | 0.00 | 76 | 1015.2 |
| 20260508080804 | 60 | 126 | 0.0 | 0.0 | 0.00 | 0.01 | 0.00 | 76 | 1015.3 |
| 20260508074804 | 60 | 134 | 1.7 | 4.3 | 0.00 | 0.01 | 0.00 | 77 | 1015.0 |
| 20260508074305 | 60 | 135 | 1.7 | 4.3 | 0.00 | 0.01 | 0.00 | 77 | 1015.0 |
| 20260508073805 | 59 | 5 | 0.9 | 2.6 | 0.00 | 0.01 | 0.00 | 77 | 1014.9 |
| 20260508071805 | 59 | 1 | 0.9 | 7.8 | 0.00 | 0.01 | 0.00 | 79 | 1015.0 |
| 20260508071305 | 59 | 355 | 0.0 | 1.7 | 0.00 | 0.01 | 0.00 | 79 | 1015.1 |
| 20260508070805 | 59 | 355 | 1.7 | 4.3 | 0.00 | 0.01 | 0.00 | 79 | 1014.9 |
| 20260508070305 | 59 | 355 | 1.7 | 2.6 | 0.00 | 0.01 | 0.00 | 79 | 1015.0 |
| 20260508064805 | 59 | 323 | 0.0 | 0.0 | 0.00 | 0.01 | 0.00 | 79 | 1015.6 |
| 20260508064305 | 59 | 323 | 0.0 | 0.9 | 0.00 | 0.01 | 0.00 | 79 | 1015.7 |
| 20260508063805 | 58 | 323 | 0.9 | 1.7 | 0.00 | 0.01 | 0.00 | 79 | 1015.6 |
| 20260508063305 | 58 | 323 | 0.0 | 0.0 | 0.00 | 0.01 | 0.00 | 79 | 1015.7 |
| 20260508061805 | 58 | 323 | 0.9 | 1.7 | 0.00 | 0.01 | 0.00 | 79 | 1015.8 |
| 20260508061305 | 58 | 323 | 0.0 | 0.0 | 0.00 | 0.01 | 0.00 | 79 | 1016.1 |
| 20260508060806 | 58 | 323 | 0.0 | 1.7 | 0.00 | 0.01 | 0.00 | 79 | 1016.3 |
| 20260508060306 | 58 | 323 | 0.0 | 0.9 | 0.00 | 0.01 | 0.00 | 79 | 1016.2 |
| 20260508054805 | 58 | 323 | 0.0 | 0.9 | 0.00 | 0.01 | 0.00 | 79 | 1015.8 |
| 20260508054305 | 58 | 323 | 0.9 | 2.6 | 0.00 | 0.01 | 0.00 | 79 | 1015.6 |
| 20260508053805 | 59 | 323 | 0.0 | 0.0 | 0.00 | 0.01 | 0.00 | 79 | 1015.6 |
| 20260508053305 | 59 | 323 | 0.0 | 0.0 | 0.00 | 0.01 | 0.00 | 79 | 1015.9 |
| 20260508051805 | 59 | 323 | 0.0 | 0.9 | 0.00 | 0.01 | 0.00 | 79 | 1016.1 |
| 20260508051305 | 59 | 323 | 0.9 | 1.7 | 0.00 | 0.01 | 0.00 | 78 | 1016.1 |
| 20260508050806 | 59 | 323 | 1.7 | 2.6 | 0.00 | 0.01 | 0.00 | 78 | 1016.1 |
| 20260508050306 | 59 | 323 | 0.0 | 1.7 | 0.00 | 0.01 | 0.00 | 79 | 1015.9 |
| 20260508044805 | 59 | 323 | 0.9 | 1.7 | 0.00 | 0.01 | 0.01 | 79 | 1015.6 |
| 20260508044305 | 59 | 323 | 1.7 | 2.6 | 0.00 | 0.01 | 0.01 | 79 | 1015.9 |
| 20260508043805 | 59 | 322 | 0.0 | 0.9 | 0.00 | 0.01 | 0.01 | 78 | 1016.3 |
| 20260508043306 | 59 | 322 | 0.0 | 4.3 | 0.00 | 0.01 | 0.01 | 78 | 1016.4 |
| 20260508041805 | 59 | 37 | 0.0 | 1.7 | 0.00 | 0.01 | 0.01 | 78 | 1015.8 |
| 20260508041305 | 58 | 37 | 0.0 | 1.7 | 0.00 | 0.01 | 0.01 | 79 | 1015.5 |
| 20260508040805 | 58 | 37 | 2.6 | 4.3 | 0.00 | 0.01 | 0.01 | 79 | 1015.5 |
| 20260508040305 | 58 | 15 | 0.9 | 2.6 | 0.00 | 0.01 | 0.01 | 79 | 1016.1 |
| 20260508034805 | 59 | 14 | 0.9 | 1.7 | 0.00 | 0.01 | 0.01 | 77 | 1016.4 |
| 20260508034305 | 59 | 14 | 0.0 | 0.9 | 0.00 | 0.01 | 0.01 | 77 | 1016.3 |
| 20260508033805 | 59 | 14 | 0.9 | 1.7 | 0.00 | 0.01 | 0.01 | 76 | 1016.5 |
| 20260508031305 | 60 | 14 | 0.0 | 0.0 | 0.00 | 0.01 | 0.01 | 74 | 1017.1 |
| 20260508030805 | 60 | 14 | 0.9 | 1.7 | 0.00 | 0.01 | 0.01 | 74 | 1017.3 |
| 20260508030305 | 60 | 14 | 0.0 | 1.7 | 0.00 | 0.01 | 0.01 | 74 | 1017.1 |
| 20260508024805 | 61 | 15 | 0.0 | 0.0 | 0.00 | 0.01 | 0.01 | 72 | 1016.0 |
| 20260508024305 | 61 | 15 | 0.0 | 0.9 | 0.00 | 0.01 | 0.01 | 72 | 1015.8 |
| 20260508023805 | 61 | 15 | 0.9 | 1.7 | 0.00 | 0.01 | 0.01 | 71 | 1015.8 |
| 20260508023305 | 61 | 15 | 0.0 | 2.6 | 0.00 | 0.01 | 0.01 | 71 | 1015.6 |
| 20260508021805 | 62 | 28 | 0.0 | 0.0 | 0.00 | 0.01 | 0.01 | 70 | 1015.2 |
| 20260508021305 | 62 | 28 | 0.0 | 2.6 | 0.00 | 0.01 | 0.01 | 69 | 1014.8 |
| 20260508020805 | 62 | 26 | 0.9 | 5.2 | 0.00 | 0.01 | 0.01 | 69 | 1014.5 |
| 20260508014306 | 62 | 49 | 1.7 | 7.0 | 0.00 | 0.01 | 0.01 | 68 | 1014.6 |
| 20260508013805 | 62 | 66 | 0.9 | 4.3 | 0.00 | 0.01 | 0.01 | 68 | 1014.6 |
| 20260508013305 | 62 | 140 | 0.9 | 4.3 | 0.00 | 0.01 | 0.01 | 68 | 1014.8 |
| 20260508011305 | 63 | 115 | 5.2 | 11.3 | 0.00 | 0.01 | 0.01 | 65 | 1014.3 |
| 20260508010805 | 63 | 98 | 0.9 | 2.6 | 0.00 | 0.01 | 0.01 | 65 | 1014.5 |
| 20260508004805 | 64 | 113 | 2.6 | 7.0 | 0.00 | 0.01 | 0.01 | 63 | 1015.1 |
| 20260508004305 | 64 | 43 | 4.3 | 10.4 | 0.00 | 0.01 | 0.01 | 63 | 1015.2 |
| 20260508003805 | 64 | 24 | 2.6 | 8.7 | 0.00 | 0.01 | 0.01 | 64 | 1015.4 |
| 20260508001305 | 65 | 127 | 2.6 | 8.7 | 0.00 | 0.01 | 0.01 | 62 | 1015.3 |
| 20260508000305 | 66 | 63 | 0.9 | 5.2 | 0.00 | 0.01 | 0.01 | 62 | 1015.4 |
| 20260507234805 | 66 | 36 | 2.6 | 4.3 | 0.00 | 0.01 | 0.01 | 62 | 1015.9 |
| 20260507234305 | 67 | 36 | 0.9 | 1.7 | 0.00 | 0.01 | 0.01 | 62 | 1016.2 |
| 20260507233805 | 66 | 35 | 1.7 | 2.6 | 0.00 | 0.01 | 0.01 | 60 | 1016.5 |
| 20260507233305 | 66 | 38 | 2.6 | 5.2 | 0.00 | 0.01 | 0.01 | 60 | 1016.4 |
| 20260507231805 | 67 | 86 | 0.9 | 2.6 | 0.00 | 0.01 | 0.01 | 61 | 1016.2 |
| 20260507231305 | 67 | 87 | 0.9 | 2.6 | 0.00 | 0.01 | 0.01 | 59 | 1016.4 |
| 20260507230805 | 67 | 85 | 0.9 | 2.6 | 0.00 | 0.01 | 0.01 | 61 | 1016.4 |
| 20260507230306 | 67 | 44 | 1.7 | 7.8 | 0.00 | 0.01 | 0.01 | 61 | 1016.0 |
| 20260507224305 | 67 | 342 | 2.6 | 5.2 | 0.00 | 0.01 | 0.01 | 61 | 1016.5 |
| 20260507223805 | 67 | 1 | 4.3 | 11.3 | 0.00 | 0.01 | 0.01 | 61 | 1016.3 |
| 20260507221305 | 66 | 357 | 6.1 | 12.2 | 0.00 | 0.01 | 0.01 | 61 | 1016.8 |
| 20260507220805 | 66 | 349 | 4.3 | 8.7 | 0.00 | 0.01 | 0.01 | 61 | 1016.7 |
| 20260507220305 | 67 | 8 | 3.5 | 13.0 | 0.00 | 0.01 | 0.01 | 61 | 1016.8 |
| 20260507214305 | 67 | 3 | 2.6 | 7.0 | 0.00 | 0.01 | 0.01 | 61 | 1017.0 |
| 20260507213805 | 67 | 33 | 3.5 | 8.7 | 0.00 | 0.01 | 0.01 | 60 | 1017.2 |
| 20260507213305 | 67 | 338 | 2.6 | 10.4 | 0.00 | 0.01 | 0.01 | 60 | 1017.3 |
| 20260507211805 | 68 | 5 | 2.6 | 10.4 | 0.00 | 0.01 | 0.01 | 61 | 1017.5 |
| 20260507211305 | 67 | 344 | 2.6 | 5.2 | 0.00 | 0.01 | 0.01 | 63 | 1017.5 |
| 20260507210805 | 66 | 327 | 6.1 | 8.7 | 0.00 | 0.01 | 0.01 | 62 | 1017.1 |
| 20260507210305 | 66 | 31 | 4.3 | 11.3 | 0.00 | 0.01 | 0.01 | 63 | 1017.1 |
| 20260507204805 | 66 | 36 | 2.6 | 7.0 | 0.00 | 0.01 | 0.01 | 62 | 1017.3 |
| 20260507204305 | 66 | 7 | 1.7 | 5.2 | 0.00 | 0.01 | 0.01 | 63 | 1017.4 |
| 20260507203805 | 66 | 43 | 0.9 | 2.6 | 0.00 | 0.01 | 0.01 | 63 | 1017.3 |
| 20260507203305 | 66 | 49 | 2.6 | 5.2 | 0.00 | 0.01 | 0.01 | 63 | 1017.3 |
| 20260507200805 | 66 | 319 | 6.1 | 12.2 | 0.00 | 0.01 | 0.01 | 63 | 1017.7 |
| 20260507200305 | 66 | 342 | 6.1 | 11.3 | 0.00 | 0.01 | 0.01 | 62 | 1017.7 |
| 20260507194805 | 65 | 41 | 3.5 | 8.7 | 0.00 | 0.01 | 0.01 | 62 | 1018.0 |
| 20260507193805 | 66 | 50 | 3.5 | 10.4 | 0.00 | 0.01 | 0.01 | 63 | 1018.0 |
| 20260507193305 | 65 | 346 | 3.5 | 10.4 | 0.00 | 0.01 | 0.01 | 63 | 1018.4 |
| 20260507191805 | 65 | 343 | 2.6 | 7.0 | 0.00 | 0.01 | 0.01 | 65 | 1018.6 |
| 20260507190805 | 64 | 357 | 4.3 | 10.4 | 0.00 | 0.01 | 0.01 | 66 | 1018.6 |
| 20260507184305 | 63 | 63 | 5.2 | 12.2 | 0.00 | 0.01 | 0.01 | 66 | 1018.4 |
| 20260507183805 | 63 | 63 | 6.1 | 12.2 | 0.00 | 0.01 | 0.01 | 67 | 1017.6 |
| 20260507183305 | 63 | 67 | 5.2 | 12.2 | 0.00 | 0.01 | 0.01 | 66 | 1018.0 |
| 20260507181805 | 63 | 38 | 2.6 | 8.7 | 0.00 | 0.01 | 0.01 | 68 | 1017.9 |
| 20260507181305 | 63 | 355 | 4.3 | 12.2 | 0.00 | 0.01 | 0.01 | 68 | 1018.1 |
| 20260507180805 | 63 | 0 | 2.6 | 8.7 | 0.00 | 0.01 | 0.01 | 69 | 1018.4 |
| 20260507180305 | 63 | 30 | 2.6 | 11.3 | 0.00 | 0.01 | 0.01 | 69 | 1018.4 |
| 20260507174305 | 64 | 58 | 4.3 | 10.4 | 0.00 | 0.01 | 0.01 | 70 | 1018.6 |